CW0351 Weather Reports


Display with metric or nautical units.
time (UTC)temp
F
wind
direction
speed
MPH
gust
MPH
rain 1hr
in
rain 24hr
in
rain mn
in
humidity
%
barometer
mb
20260508041554 50 0 0.0 0.0 0.00 0.00 0.00 74 1009.9
20260508034558 50 0 0.0 0.0 0.00 0.00 0.00 71 1009.4
20260508033055 50 0 0.0 0.0 0.00 0.00 0.00 69 1009.4
20260508031556 50 0 0.0 0.0 0.00 0.00 0.00 71 1009.3
20260508030103 49 0 0.0 0.0 0.00 0.00 0.00 69 1009.4
20260508024554 49 0 0.0 0.0 0.00 0.00 0.00 67 1009.5
20260508023052 49 0 0.0 0.0 0.00 0.00 0.00 66 1009.4
20260508021558 50 0 0.0 0.0 0.00 0.00 0.00 66 1009.4
20260508014553 51 0 0.0 0.0 0.00 0.00 0.00 62 1009.1
20260508013054 52 0 0.0 0.0 0.00 0.00 0.00 58 1009.0
20260508011551 53 0 0.0 0.0 0.00 0.00 0.00 58 1008.9
20260508010054 53 0 0.0 0.0 0.00 0.00 0.00 52 1008.9
20260508004548 54 0 0.0 0.0 0.00 0.00 0.00 53 1008.8
20260508003052 55 0 0.0 0.0 0.00 0.00 0.00 47 1008.6
20260508001552 56 0 0.0 0.0 0.00 0.00 0.00 41 1008.4
20260508000053 57 0 0.0 0.0 0.00 0.00 0.00 38 1008.2
20260507234553 58 0 0.0 0.0 0.00 0.00 0.00 38 1008.0
20260507233056 59 0 0.0 0.0 0.00 0.00 0.00 41 1008.0
20260507231555 60 0 0.0 4.0 0.00 0.00 0.00 35 1008.0
20260507230104 61 0 0.0 1.0 0.00 0.00 0.00 36 1007.9
20260507224558 62 0 0.0 0.0 0.00 0.00 0.00 36 1007.9
20260507223050 63 0 0.0 9.0 0.00 0.00 0.00 33 1007.9
20260507221551 64 0 0.0 5.0 0.00 0.00 0.00 35 1008.0
20260507220052 65 0 0.0 8.0 0.00 0.00 0.00 32 1007.9
20260507214604 65 234 0.0 10.0 0.00 0.00 0.00 33 1007.7
20260507213058 66 0 1.0 6.0 0.00 0.00 0.00 30 1007.9
20260507211600 65 0 0.0 10.0 0.00 0.00 0.00 30 1007.9
20260507210105 65 12 2.0 8.0 0.00 0.00 0.00 30 1007.8
20260507204559 66 0 1.0 7.0 0.00 0.00 0.00 38 1007.7
20260507203106 65 0 0.0 8.0 0.00 0.00 0.00 32 1007.7
20260507201617 65 0 0.0 7.0 0.00 0.00 0.00 32 1008.0
20260507200107 63 13 0.0 11.0 0.00 0.00 0.00 33 1007.9
20260507194553 65 0 1.0 6.0 0.00 0.00 0.00 31 1008.1
20260507193054 65 0 0.0 11.0 0.00 0.00 0.00 38 1008.5
20260507191557 63 0 0.0 7.0 0.00 0.00 0.00 41 1008.7
20260507190058 63 261 1.0 9.0 0.00 0.00 0.00 31 1008.9
20260507184558 63 0 1.0 9.0 0.00 0.00 0.00 36 1009.0
20260507183058 63 17 0.0 4.0 0.00 0.00 0.00 38 1009.1
20260507181553 62 0 0.0 9.0 0.00 0.00 0.00 36 1009.3
20260507180052 61 351 3.0 10.0 0.00 0.00 0.00 40 1009.5
20260507174553 61 0 1.0 9.0 0.00 0.00 0.00 38 1009.6
20260507173054 61 30 2.0 10.0 0.00 0.00 0.00 37 1010.0
20260507171555 60 0 3.0 11.0 0.00 0.00 0.00 39 1010.2
20260507164600 60 0 2.0 12.0 0.00 0.00 0.00 40 1010.8
20260507163050 59 0 0.0 9.0 0.00 0.00 0.00 47 1010.9
20260507161556 59 0 1.0 7.0 0.00 0.00 0.00 46 1011.1
20260507160059 58 0 2.0 10.0 0.00 0.00 0.00 41 1011.2
20260507154559 58 0 1.0 9.0 0.00 0.00 0.00 48 1011.4
20260507153101 58 0 2.0 11.0 0.00 0.00 0.00 46 1011.4
20260507151554 58 360 3.0 10.0 0.00 0.00 0.00 46 1011.7
20260507150054 56 0 3.0 8.0 0.00 0.00 0.00 51 1011.9
20260507144600 56 0 3.0 10.0 0.00 0.00 0.00 51 1012.0
20260507143105 55 0 1.0 9.0 0.00 0.00 0.00 55 1012.2
20260507141555 54 0 0.0 7.0 0.00 0.00 0.00 56 1012.3
20260507140052 55 9 3.0 9.0 0.00 0.00 0.00 59 1012.2
20260507134600 54 307 4.0 15.0 0.00 0.00 0.00 60 1012.4
20260507133120 53 0 0.0 6.0 0.00 0.00 0.00 68 1012.3
20260507131554 51 0 2.0 6.0 0.00 0.00 0.00 71 1012.3
20260507130106 50 20 0.0 0.0 0.00 0.00 0.00 80 1012.3
20260507124552 49 0 0.0 0.0 0.00 0.00 0.00 86 1012.5
20260507123054 49 0 0.0 1.0 0.00 0.00 0.00 90 1012.4
20260507121606 48 0 0.0 0.0 0.00 0.00 0.00 91 1012.2
20260507120059 48 0 0.0 0.0 0.00 0.00 0.00 93 1012.4
20260507114634 48 0 0.0 4.0 0.00 0.00 0.00 94 1012.3
20260507113048 48 0 0.0 0.0 0.00 0.00 0.00 94 1012.2
20260507111559 49 0 0.0 0.0 0.00 0.00 0.00 94 1011.9
20260507110055 49 0 0.0 0.0 0.00 0.00 0.00 94 1011.6
20260507104551 49 0 0.0 0.0 0.00 0.00 0.00 94 1011.6
20260507103053 49 0 0.0 0.0 0.00 0.00 0.00 94 1011.3
20260507101550 48 0 0.0 0.0 0.00 0.00 0.00 94 1011.2
20260507100057 48 0 0.0 0.0 0.00 0.00 0.00 93 1010.9
20260507094550 48 0 0.0 0.0 0.00 0.00 0.00 93 1010.8
20260507093052 48 0 0.0 0.0 0.00 0.00 0.00 93 1010.6
20260507091554 48 0 0.0 0.0 0.00 0.00 0.00 92 1010.3
20260507090054 48 0 0.0 0.0 0.00 0.00 0.00 92 1010.3
20260507084558 48 0 0.0 0.0 0.00 0.00 0.00 92 1010.5
20260507083054 48 0 0.0 0.0 0.00 0.00 0.00 92 1010.5
20260507081554 48 0 0.0 0.0 0.00 0.00 0.00 92 1010.5
20260507080117 48 0 0.0 0.0 0.00 0.00 0.00 91 1010.8
20260507074558 48 0 0.0 0.0 0.00 0.00 0.00 91 1010.7
20260507073105 48 0 0.0 0.0 0.00 0.00 0.00 91 1010.8
20260507071553 48 0 0.0 0.0 0.00 0.00 0.00 91 1011.0
20260507070056 49 0 0.0 0.0 0.00 0.00 0.00 91 1010.9
20260507064600 49 0 0.0 4.0 0.00 0.00 0.00 90 1011.3
20260507063105 49 0 0.0 1.0 0.00 0.00 0.00 90 1011.0
20260507061558 50 0 0.0 4.0 0.00 0.00 0.00 90 1010.9
20260507060058 50 0 0.0 0.0 0.00 0.00 0.00 89 1011.0
20260507054552 51 0 0.0 0.0 0.00 0.00 0.00 89 1010.9
20260507053053 51 0 0.0 0.0 0.00 0.00 0.00 88 1010.5
20260507051552 52 0 0.0 4.0 0.00 0.00 0.00 86 1010.5
20260507050058 53 0 0.0 2.0 0.00 0.00 0.00 82 1009.7
20260507044556 54 249 0.0 8.0 0.00 0.00 0.00 79 1010.2
20260507043054 55 0 0.0 0.0 0.00 0.00 0.00 79 1009.9
20260507041553 55 0 0.0 0.0 0.00 0.00 0.00 78 1009.9
20260507034557 55 327 0.0 8.0 0.00 0.00 0.00 77 1010.1
20260507033055 56 0 0.0 8.0 0.00 0.00 0.00 78 1009.8
20260507031556 56 360 1.0 8.0 0.00 0.00 0.00 80 1009.7
20260507030055 57 0 0.0 6.0 0.00 0.00 0.00 82 1009.5
20260507024609 58 360 0.0 10.0 0.00 0.00 0.00 81 1009.4
20260507023054 59 53 1.0 8.0 0.00 0.00 0.00 80 1009.4
20260507021556 63 0 0.0 9.0 0.00 0.00 0.00 83 1009.2
20260507020108 63 0 0.0 2.0 0.00 0.00 0.00 83 1009.0
20260507014555 64 0 0.0 3.0 0.00 0.00 0.00 82 1009.1
20260507013056 65 0 0.0 3.0 0.00 0.00 0.00 82 1009.0
20260507011549 65 0 0.0 5.0 0.00 0.00 0.00 81 1008.6
20260507004602 65 0 0.0 5.0 0.00 0.00 0.00 81 1008.4
20260507003053 65 0 0.0 4.0 0.00 0.00 0.00 80 1008.1
20260507001551 65 0 0.0 6.0 0.00 0.00 0.00 80 1008.0
20260507000053 66 200 0.0 4.0 0.00 0.00 0.00 80 1008.0
20260506234552 66 0 0.0 5.0 0.00 0.00 0.00 78 1007.9
20260506233102 66 0 1.0 5.0 0.00 0.00 0.00 77 1007.8
20260506231557 66 213 5.0 11.0 0.00 0.00 0.00 77 1007.7
20260506230056 67 241 0.0 11.0 0.00 0.00 0.00 76 1007.9
20260506224554 67 233 1.0 9.0 0.00 0.00 0.00 75 1007.8
20260506223054 67 229 0.0 8.0 0.00 0.00 0.00 76 1007.7
20260506221553 67 0 1.0 10.0 0.00 0.00 0.00 77 1007.6
20260506220052 66 233 2.0 12.0 0.00 0.00 0.00 78 1007.7
20260506214554 66 0 2.0 8.0 0.00 0.00 0.00 79 1007.5
20260506213112 66 0 3.0 8.0 0.00 0.00 0.00 80 1007.3
20260506211555 65 0 0.0 6.0 0.00 0.00 0.00 81 1007.3
20260506210051 65 213 1.0 8.0 0.00 0.00 0.00 80 1007.3
20260506204556 65 220 1.0 14.0 0.00 0.00 0.00 80 1007.1
20260506203056 64 243 4.0 12.0 0.00 0.00 0.00 82 1007.1
20260506201548 63 224 3.0 10.0 0.00 0.00 0.00 83 1007.2
20260506200055 63 223 3.0 11.0 0.00 0.00 0.00 84 1007.3
20260506194554 63 0 3.0 9.0 0.00 0.00 0.00 86 1007.3
20260506193049 62 194 2.0 8.0 0.00 0.00 0.00 87 1007.6
20260506191553 62 211 5.0 15.0 0.00 0.00 0.00 88 1007.7
20260506190048 61 249 3.0 14.0 0.00 0.00 0.00 89 1007.7
20260506184553 61 246 4.0 14.0 0.00 0.00 0.00 88 1007.9
20260506183056 62 227 2.0 14.0 0.00 0.00 0.00 87 1008.0
20260506181615 61 0 3.0 10.0 0.00 0.00 0.00 88 1008.0
20260506180054 61 161 5.0 12.0 0.00 0.00 0.00 88 1008.2
20260506174556 61 183 2.0 15.0 0.00 0.00 0.00 89 1008.2
20260506173101 61 0 2.0 10.0 0.00 0.00 0.00 90 1008.2
20260506171554 61 181 2.0 15.0 0.00 0.00 0.00 90 1008.4
20260506170055 62 191 4.0 16.0 0.00 0.00 0.00 91 1008.3
20260506164554 62 217 6.0 19.0 0.00 0.00 0.00 91 1008.5
20260506163052 61 167 2.0 9.0 0.00 0.00 0.00 91 1008.2